Tracking 29782 objects as of 13-Oct-2024
HD Live streaming from Space Station
objects crossing your sky now

TITAN 34B R/B

Track TITAN 34B R/B now!
10-day predictions


NORAD ID: 12446
Int'l Code: 1981-038B
Perigee: 301.7 km
Apogee: 17,595.5 km
Inclination: 63.0 °
Period: 314.5 minutes
Semi major axis: 15319 km
RCS: Unknown
Launch date: April 24, 1981
Source: United States (US)
Launch site: AIR FORCE WESTERN TEST RANGE (AFWTR)

Note: This is a ROCKET BODY
Your satellite tracking list
Your tracking list is empty




NASA's NSSDC Master Catalog

Two Line Element Set (TLE):
1 12446U 81038B   24286.30031161  .00014875  00000-0  29700-2 0  9999
2 12446  63.0493 196.8910 5644327 284.3209  21.9348  4.57857758 67586
Source of the keplerian elements: AFSPC